Home > Weather > Mamoutzou > Past weeks

Flag for Mayotte Past Weather in Mamoutzou, Mayotte — Yesterday and Last 2 Weeks

Now
75 °F

Mild.


Feels Like: 77 °F
Forecast: 76 / 80 °F
Wind: 8 mph from South

Location: Dzaoudzi / Pamanzi Mayotte

Current Time: Jun 29, 2016 at 3:10:52 AM

Latest Report: Jun 29, 2016 at 2:30 AM


Visibility: N/A

Pressure: 30.04 "Hg

Humidity: 74%

Dew Point: 66 °F

Location of MamoutzouLocation

Past Weather in Mamoutzou — Graph

°F

Mamoutzou Temperature Yesterday

Maximum temperature yesterday: 82 °F (at 12:30 PM)
Minimum temperature yesterday: 73 °F (at 8:00 PM)
Average temperature yesterday: 78 °F

High & Low Weather Summary for the Past Weeks

 TemperatureHumidityPressure
High84 °F (Jun 16, 11:30 AM)100% (Jun 18, 1:30 AM)30.12 "Hg (Jun 18, 1:30 AM)
Low73 °F (Jun 14, 8:30 PM)54% (Jun 27, 4:00 PM)29.95 "Hg (Jun 16, 2:30 PM)
Average79 °F73%30.05 "Hg
* Reported Jun 14 2:00 AM — Jun 29 2:00 AM, Mamoutzou, Weather by CustomWeather, © 2016

Note: Actual official high and low records may vary slightly from our data, if they occured in-between our weather recording intervals... More about our weather records

Advertising

Mamoutzou Weather History for the Previous 24 Hours

Scroll right to see more
 ConditionsComfort  
Time TempWeatherWind HumidityBarometerVisibility
2:00 AM
Wed, Jun 29
73 °FMild.8 mph78%30.04 "HgN/A
1:30 AM73 °FMild.8 mph78%30.04 "HgN/A
1:00 AM73 °FMild.7 mph78%30.04 "HgN/A
12:30 AM73 °FMild.6 mph74%30.07 "HgN/A
12:00 AM73 °FMild.7 mph74%30.07 "HgN/A
11:30 PM
Tue, Jun 28
73 °FMild.6 mph74%30.07 "HgN/A
11:00 PM75 °FMild.7 mph69%30.07 "HgN/A
10:30 PM75 °FMild.8 mph69%30.09 "HgN/A
10:00 PM75 °FPassing clouds.8 mph74%30.09 "HgN/A
9:30 PM75 °FMild.8 mph74%30.09 "HgN/A
9:00 PM75 °FMild.8 mph69%30.09 "HgN/A
8:30 PM75 °FPassing clouds.7 mph69%30.09 "HgN/A
8:00 PM73 °FPassing clouds.6 mph74%30.07 "HgN/A
7:30 PM75 °FMild.8 mph69%30.07 "HgN/A
7:00 PM75 °FPassing clouds.9 mph69%30.07 "HgN/A
6:30 PM75 °FPassing clouds.7 mph69%30.07 "HgN/A
6:00 PM75 °FPassing clouds.9 mph69%30.07 "HgN/A
5:30 PM77 °FScattered clouds.10 mph65%30.04 "HgN/A
5:00 PM77 °FScattered clouds.12 mph69%30.04 "HgN/A
4:30 PM79 °FPassing clouds.10 mph61%30.04 "HgN/A
4:00 PM81 °FPassing clouds.10 mph58%30.04 "HgN/A
3:30 PM81 °FPassing clouds.10 mph62%30.01 "HgN/A
3:00 PM81 °FPassing clouds.10 mph58%30.01 "HgN/A
2:30 PM81 °FScattered clouds.12 mph62%30.04 "HgN/A
2:00 PM81 °FScattered clouds.12 mph62%30.04 "HgN/A
1:30 PM81 °FScattered clouds.13 mph62%30.04 "HgN/A
1:00 PM81 °FScattered clouds.13 mph62%30.04 "HgN/A
12:30 PM82 °FScattered clouds.13 mph58%30.07 "HgN/A
12:00 PM81 °FScattered clouds.14 mph62%30.07 "HgN/A
11:30 AM81 °FScattered clouds.16 mph62%30.07 "HgN/A
11:00 AM81 °FScattered clouds.17 mph66%30.07 "HgN/A
10:30 AM81 °FScattered clouds.20 mph62%30.09 "HgN/A
10:00 AM81 °FScattered clouds.21 mph66%30.09 "HgN/A
9:30 AM81 °FScattered clouds.17 mph66%30.09 "HgN/A
9:00 AM81 °FScattered clouds.20 mph66%30.09 "HgN/A
8:30 AM79 °FScattered clouds.18 mph70%30.09 "HgN/A
8:00 AM79 °FScattered clouds.18 mph70%30.07 "HgN/A
7:30 AM77 °FScattered clouds.15 mph69%30.07 "HgN/A
7:00 AM77 °FScattered clouds.15 mph74%30.07 "HgN/A
6:30 AM77 °FScattered clouds.14 mph69%30.07 "HgN/A
6:00 AM77 °FPassing clouds.15 mph69%30.04 "HgN/A
5:30 AM77 °FPassing clouds.14 mph69%30.04 "HgN/A
5:00 AM77 °FPassing clouds.14 mph69%30.04 "HgN/A
4:30 AM77 °FWarm.16 mph65%30.04 "HgN/A
4:00 AM77 °FPassing clouds.15 mph69%30.01 "HgN/A
3:30 AM77 °FWarm.13 mph69%30.01 "HgN/A
3:00 AM77 °FWarm.12 mph69%30.01 "HgN/A
Weather by CustomWeather, © 2016

See weather overviewHow to use our weather pages